GW1017 Weather Reports


Display with metric or nautical units.
time (UTC)temp
F
wind
direction
speed
MPH
gust
MPH
rain 1hr
in
rain 24hr
in
rain mn
in
humidity
%
barometer
mb
20260506113051 37 0 0.0 0.0 0.01 0.06 0.01 88 1015.8
20260506111552 38 0 0.0 0.0 0.00 0.05 0.00 88 1015.6
20260506110050 38 0 0.0 0.0 0.00 0.05 0.00 87 1015.4
20260506104548 38 0 0.0 1.0 0.00 0.05 0.00 87 1015.3
20260506103049 39 0 0.0 0.0 0.00 0.05 0.00 86 1015.1
20260506101552 39 0 0.0 0.0 0.00 0.05 0.00 85 1015.1
20260506100050 40 0 0.0 0.0 0.00 0.05 0.00 84 1015.0
20260506094550 41 0 0.0 0.0 0.00 0.05 0.00 81 1014.8
20260506093109 42 0 0.0 0.0 0.00 0.05 0.00 78 1014.8
20260506091549 44 0 0.0 0.0 0.00 0.05 0.00 76 1014.8
20260506090058 45 0 0.0 1.0 0.00 0.05 0.00 74 1014.9
20260506084554 46 0 0.0 4.0 0.00 0.05 0.00 71 1014.9
20260506083057 46 111 1.0 5.0 0.00 0.05 0.00 74 1015.0
20260506081555 44 0 0.0 1.0 0.00 0.05 0.00 83 1015.2
20260506080110 44 0 0.0 1.0 0.00 0.05 0.00 83 1015.1
20260506073103 46 0 0.0 0.0 0.00 0.05 0.00 82 1015.1
20260506071554 46 0 0.0 0.0 0.00 0.05 0.00 82 1015.1
20260506061601 47 0 0.0 0.0 0.00 0.05 0.00 81 1014.4
20260506044605 50 0 0.0 0.0 0.00 0.05 0.05 74 1014.0
20260506043056 51 47 0.0 3.0 0.00 0.05 0.05 72 1013.8
20260506041605 52 32 0.0 5.0 0.00 0.05 0.05 70 1013.7
20260506040101 53 28 2.0 6.0 0.00 0.05 0.05 66 1013.7
20260506034552 53 309 1.0 7.0 0.00 0.05 0.05 67 1013.3
20260506033056 53 44 2.0 6.0 0.00 0.05 0.05 68 1012.9
20260506031559 53 41 3.0 7.0 0.00 0.05 0.05 73 1012.5
20260506030057 51 315 0.0 1.0 0.00 0.05 0.05 83 1012.2
20260506024555 52 0 0.0 0.0 0.00 0.05 0.05 81 1011.6
20260506023102 52 0 0.0 0.0 0.00 0.05 0.05 81 1011.2
20260506021556 52 0 0.0 1.0 0.00 0.05 0.05 81 1011.0
20260506020119 54 0 0.0 0.0 0.00 0.05 0.05 78 1010.5
20260506014553 55 0 0.0 1.0 0.00 0.05 0.05 75 1010.4
20260506013052 57 0 0.0 0.0 0.00 0.05 0.05 70 1010.4
20260506011550 58 0 0.0 1.0 0.00 0.05 0.05 66 1010.3
20260506010049 58 0 0.0 0.0 0.00 0.05 0.05 65 1010.6
20260506004553 59 0 0.0 0.0 0.00 0.05 0.05 58 1010.1
20260506003052 60 0 0.0 2.0 0.00 0.05 0.05 53 1010.1
20260506001603 61 21 1.0 4.0 0.00 0.05 0.05 52 1009.9
20260506000118 62 91 0.0 3.0 0.00 0.05 0.05 50 1009.8
20260505234607 61 0 0.0 4.0 0.00 0.05 0.05 55 1010.1
20260505233053 61 0 0.0 5.0 0.00 0.05 0.05 53 1010.2
20260505231556 62 226 1.0 4.0 0.00 0.05 0.05 51 1010.4
20260505230053 61 54 1.0 5.0 0.00 0.05 0.05 56 1010.5
20260505224552 60 311 2.0 6.0 0.00 0.05 0.05 56 1010.5
20260505223048 60 354 2.0 10.0 0.00 0.05 0.05 55 1010.8
20260505221558 59 61 2.0 14.0 0.00 0.05 0.05 58 1011.2
20260505220105 60 12 3.0 9.0 0.00 0.05 0.05 62 1011.1
20260505214559 59 0 1.0 7.0 0.00 0.05 0.05 68 1011.7
20260505213051 61 271 1.0 4.0 0.00 0.05 0.05 58 1011.6
20260505211629 62 19 1.0 8.0 0.00 0.05 0.05 55 1011.0
20260505210049 64 309 2.0 6.0 0.00 0.05 0.05 54 1011.2
20260505204604 65 6 3.0 6.0 0.00 0.05 0.05 55 1011.2
20260505203056 64 0 0.0 5.0 0.00 0.05 0.05 52 1011.9
20260505201553 67 0 2.0 6.0 0.00 0.05 0.05 51 1011.8
20260505200054 65 291 2.0 6.0 0.00 0.05 0.05 54 1011.7
20260505194604 63 284 2.0 7.0 0.00 0.05 0.05 57 1011.7
20260505193055 62 315 2.0 8.0 0.00 0.05 0.05 58 1011.8
20260505191605 60 297 1.0 7.0 0.00 0.05 0.05 65 1012.3
20260505190111 59 300 1.0 7.0 0.00 0.05 0.05 71 1012.3
20260505184557 62 309 1.0 5.0 0.00 0.05 0.05 61 1012.5
20260505183052 63 0 1.0 4.0 0.00 0.05 0.05 60 1012.3
20260505181642 62 299 1.0 5.0 0.00 0.05 0.05 58 1012.4
20260505180105 61 19 0.0 3.0 0.00 0.05 0.05 56 1012.7
20260505174559 60 150 1.0 6.0 0.01 0.05 0.05 60 1012.7
20260505173052 60 62 1.0 5.0 0.01 0.05 0.05 62 1012.7
20260505171558 58 60 1.0 6.0 0.01 0.05 0.05 70 1012.8
20260505170052 56 122 0.0 2.0 0.02 0.05 0.05 80 1013.1
20260505164553 54 98 1.0 3.0 0.02 0.04 0.04 78 1013.1
20260505163049 53 98 1.0 4.0 0.03 0.04 0.04 81 1013.1
20260505161552 52 46 1.0 5.0 0.04 0.04 0.04 83 1013.2
20260505153050 55 72 2.0 5.0 0.01 0.01 0.01 70 1013.1
20260505151559 55 0 1.0 3.0 0.00 0.00 0.00 69 1013.1
20260505124553 57 0 0.0 1.0 0.00 0.00 0.00 48 1012.2
20260505123055 57 143 0.0 1.0 0.00 0.00 0.00 45 1012.2
20260505121553 58 186 0.0 2.0 0.00 0.00 0.00 44 1012.2
20260505120110 58 0 0.0 4.0 0.00 0.00 0.00 42 1012.1
20260505114556 59 309 0.0 4.0 0.00 0.00 0.00 42 1012.0